Location: Newark
(7.0858°N, 171.3717°E)
Time: 16:17:57
(UTC+00:00)

Tiros 1 - All Passes

Search period start: 26 November 2020 00:00
Search period end: 06 December 2020 00:00
Orbit: 630 x 664 km, 48.4° (Epoch: 25 November)

Date Brightness Start Highest point End Pass type
(mag) Time Alt. Az. Time Alt. Az. Time Alt. Az.
26 Nov - 02:21:55 10° SW 02:26:42 78° NW 02:31:31 10° NE daylight
26 Nov - 12:50:07 10° NNW 12:54:35 47° NE 12:59:01 10° SE night (unlit)
26 Nov - 14:34:23 10° W 14:36:32 13° SW 14:38:41 10° SSW night (unlit)
27 Nov - 01:06:36 10° S 01:10:39 28° SE 01:14:44 10° ENE daylight
27 Nov - 02:48:48 10° WSW 02:52:42 24° NW 02:56:37 10° N daylight
27 Nov - 11:36:04 10° NNE 11:38:21 13° NE 11:40:37 10° ENE night (unlit)
27 Nov - 13:16:02 10° NW 13:20:30 49° SW 13:24:58 10° SSE night (unlit)
28 Nov - 01:31:46 10° SW 01:36:33 89° WNW 01:41:22 10° NE daylight
28 Nov - 12:00:03 10° NNW 12:04:26 41° NE 12:08:48 10° ESE night (unlit)
28 Nov - 13:43:46 10° W 13:46:24 15° SW 13:49:02 10° SSW night (unlit)
29 Nov - 00:16:39 10° S 00:20:30 24° SE 00:24:23 10° ENE daylight
29 Nov - 01:58:28 10° WSW 02:02:32 27° NW 02:06:37 10° N daylight
29 Nov - 10:46:25 10° NNE 10:48:10 12° NE 10:49:56 10° ENE night (unlit)
29 Nov - 12:25:49 10° NW 12:30:22 57° SW 12:34:54 10° SSE night (unlit)
30 Nov - 00:41:38 10° SW 00:46:24 81° SE 00:51:12 10° NE daylight
30 Nov - 11:10:00 10° NNW 11:14:17 36° NE 11:18:33 10° ESE night (unlit)
30 Nov - 12:53:15 10° W 12:56:16 17° SW 12:59:16 10° S night (unlit)
30 Nov - 23:26:44 10° S 23:30:22 22° SE 23:34:00 10° ENE daylight
01 Dec - 01:08:10 10° WSW 01:12:22 31° NW 01:16:36 10° NNE daylight
01 Dec - 09:57:04 10° NE 09:58:00 10° NE 09:58:55 10° ENE night (unlit)
01 Dec - 11:35:37 10° NW 11:40:15 65° SW 11:44:50 10° SSE night (unlit)
01 Dec - 23:51:31 10° SSW 23:56:15 71° SE 00:01:01 10° NE daylight
02 Dec - 01:37:56 10° NW 01:38:32 10° NW 01:39:08 10° NW daylight
02 Dec - 10:19:57 10° NNW 10:24:09 32° NE 10:28:18 10° ESE night (unlit)
02 Dec - 12:02:47 10° W 12:06:08 19° SW 12:09:27 10° S night (unlit)
02 Dec - 22:36:52 10° S 22:40:13 19° SE 22:43:35 10° E daylight
03 Dec - 00:17:52 10° WSW 00:22:12 35° NW 00:26:34 10° NNE daylight
03 Dec - 10:45:26 10° NW 10:50:06 75° SW 10:54:44 10° SE night (unlit)
03 Dec - 23:01:25 10° SSW 23:06:06 62° SE 23:10:49 10° NE daylight
04 Dec - 00:46:41 10° WNW 00:48:20 12° NW 00:50:00 10° NNW daylight
04 Dec - 09:29:56 10° N 09:33:59 29° NE 09:38:00 10° ESE night (unlit)
04 Dec - 11:12:23 10° WNW 11:16:00 22° SW 11:19:35 10° S night (unlit)
04 Dec - 21:47:02 10° SSE 21:50:03 17° SE 21:53:06 10° E daylight
04 Dec - 23:27:37 10° WSW 23:32:03 39° NW 23:36:31 10° NNE daylight
05 Dec - 09:55:16 10° NW 09:59:58 85° SW 10:04:38 10° SE night (unlit)
05 Dec - 22:11:20 10° SSW 22:15:57 54° SE 22:20:37 10° NE daylight
